TimeMST,TemperatureF,Dew PointF,Humidity,Sea Level PressureIn,VisibilityMPH,Wind Direction,Wind SpeedMPH,Gust SpeedMPH,PrecipitationIn,Events,Conditions,WindDirDegrees,DateUTC
12:56 AM,20.1,15.1,81,30.56,10.0,Calm,Calm,-,N/A,,Clear,0,2012-11-23 07:56:00
1:56 AM,20.1,13.1,74,30.55,10.0,SW,3.5,-,N/A,,Clear,220,2012-11-23 08:56:00
2:56 AM,19.0,13.1,78,30.58,10.0,East,3.5,-,N/A,,Clear,90,2012-11-23 09:56:00
3:56 AM,19.0,13.1,78,30.56,10.0,Calm,Calm,-,N/A,,Clear,0,2012-11-23 10:56:00
4:56 AM,20.1,14.0,77,30.56,10.0,Calm,Calm,-,N/A,,Clear,0,2012-11-23 11:56:00
5:56 AM,20.1,13.1,74,30.58,10.0,Calm,Calm,-,N/A,,Clear,0,2012-11-23 12:56:00
6:56 AM,19.0,12.0,74,30.58,10.0,Calm,Calm,-,N/A,,Clear,0,2012-11-23 13:56:00
7:56 AM,19.0,14.0,81,30.59,10.0,Calm,Calm,-,N/A,,Clear,0,2012-11-23 14:56:00
8:56 AM,23.0,16.2,75,30.58,10.0,Calm,Calm,-,N/A,,Clear,0,2012-11-23 15:56:00
9:56 AM,30.0,21.0,69,30.54,10.0,Calm,Calm,-,N/A,,Clear,0,2012-11-23 16:56:00
10:56 AM,32.9,21.0,62,30.53,10.0,Calm,Calm,-,N/A,,Clear,0,2012-11-23 17:56:00
11:56 AM,36.9,20.1,51,30.46,10.0,Calm,Calm,-,N/A,,Clear,0,2012-11-23 18:56:00
12:56 PM,43.0,15.1,32,30.41,10.0,ESE,3.5,-,N/A,,Clear,110,2012-11-23 19:56:00
1:56 PM,45.0,18.1,34,30.38,10.0,WNW,8.1,-,N/A,,Clear,290,2012-11-23 20:56:00
2:56 PM,43.0,23.0,45,30.38,10.0,NNW,4.6,-,N/A,,Clear,340,2012-11-23 21:56:00
3:56 PM,38.8,23.0,53,30.39,10.0,NNW,5.8,-,N/A,,Clear,330,2012-11-23 22:56:00
4:56 PM,34.0,25.2,70,30.40,10.0,North,3.5,-,N/A,,Clear,350,2012-11-23 23:56:00
5:56 PM,31.1,24.1,75,30.40,10.0,Calm,Calm,-,N/A,,Clear,0,2012-11-24 00:56:00
6:56 PM,30.0,26.1,85,30.40,10.0,Calm,Calm,-,N/A,,Clear,0,2012-11-24 01:56:00
7:56 PM,30.0,26.1,85,30.38,10.0,SSE,4.6,-,N/A,,Clear,160,2012-11-24 02:56:00
8:56 PM,30.0,23.0,75,30.35,10.0,East,5.8,-,N/A,,Clear,90,2012-11-24 03:56:00
9:56 PM,31.1,23.0,72,30.30,10.0,SSE,6.9,-,N/A,,Clear,150,2012-11-24 04:56:00
10:56 PM,36.0,20.1,53,30.26,10.0,SSE,4.6,-,N/A,,Clear,160,2012-11-24 05:56:00
11:56 PM,32.9,23.0,67,30.25,10.0,SE,5.8,-,N/A,,Scattered Clouds,130,2012-11-24 06:56:00